Location: Unspecified
(0.0000°N, 0.0000°E)
Time: 05:10:56
(UTC+00:00)

CZ-4C DEB - Pass Details

Date: 13 March 2026
Orbit: 805 x 1381 km, 63.4° (Epoch: 15 April)

Event Time Altitude Azimuth Distance (km) Brightness Sun altitude
Rises 21:34:40 0° 298° (WNW) 4,334 ? -51.2°
Reaches altitude 10° 21:39:05 10° 277° (W) 3,419 ? -52.4°
Maximum altitude 21:43:30 15° 245° (WSW) 3,059 ? -53.4°
Enters shadow 21:46:55 12° 220° (SW) 3,293 ? -54.3°
